METAR AND TAF INFORMATION
METAR FOR GOOY
ADDS - METARS form results

(2055 UTC 26 March 2019)
Data provider http://aviationweather.gov/metar/data/
 
Forecast for: GOOY (DAKAR/YOFF , SN)
Text: TAF GOOY 261730Z 2618/2724 35010KT 9999 SCT010
Forecast period: 1800 UTC 26 March 2019 to 0000 UTC 28 March 2019
Forecast type: FROM: standard forecast or significant change
Winds: from the N (350 degrees) at 12 MPH (10 knots; 5.1 m/s)
Visibility: 6 or more miles 10+ km)
Ceiling: at least 12,000 feet AGL
Clouds: scattered clouds at 1000 feet AGL
Weather: no significant weather forecast for this period

 AIRPORT MAP

 RUNWAY INFORMATION
Runway 03 Runway length 4921 ft Runway width 98 ft
Runway elevation 63 ft Runway displaced threshold 0 ft Runway heading 23
Runway 21 Runway length 4921 ft Runway width 98 ft
Runway elevation 56 ft Runway displaced threshold 0 ft Runway heading 203
Runway 18 Runway length 11450 ft Runway width 148 ft
Runway elevation 64 ft Runway displaced threshold 525 ft Runway heading 173
Runway 36 Runway length 11450 ft Runway width 148 ft
Runway elevation 75 ft Runway displaced threshold 0 ft Runway heading 353

 AIRPORT FREQUENCIES
Type APP Name DAKAR CON Frequency 120.5 MHZ
Type INFO Name DAKAR INFO Frequency 129.5 MHZ
Type INFO Name DAKAR INFO Frequency 345.2 MHZ
Type TWR Name DAKAR TWR Frequency 118.1 MHZ

 AIRPORT NEAR NAVIGATION AIDS
Type NDB Name Dakar Frequency 323 KHZ
Type VOR-DME Name Dakar Frequency 113100 KHZ



Powered by Virtual Airlines Manager [v2.6.2]